Index of /20260426/WXO-DD/model_caps/3km/00/017
Name Last modified Size Description
Parent Directory -
20260426T00Z_MSC_CAPS_AbsoluteVorticity_IsbL-0250_RLatLon0.03_PT017H.grib2 2026-04-26 06:10 1.0M
20260426T00Z_MSC_CAPS_AbsoluteVorticity_IsbL-0500_RLatLon0.03_PT017H.grib2 2026-04-26 06:10 1.5M
20260426T00Z_MSC_CAPS_AbsoluteVorticity_IsbL-0700_RLatLon0.03_PT017H.grib2 2026-04-26 06:10 1.3M
20260426T00Z_MSC_CAPS_AbsoluteVorticity_IsbL-0850_RLatLon0.03_PT017H.grib2 2026-04-26 06:10 1.2M
20260426T00Z_MSC_CAPS_AbsoluteVorticity_IsbL-1000_RLatLon0.03_PT017H.grib2 2026-04-26 06:10 1.4M
20260426T00Z_MSC_CAPS_AirDensity_AGL-120m_RLatLon0.03_PT017H.grib2 2026-04-26 06:10 1.5M
20260426T00Z_MSC_CAPS_AirDensity_AGL-40m_RLatLon0.03_PT017H.grib2 2026-04-26 06:10 1.5M
20260426T00Z_MSC_CAPS_AirDensity_AGL-80m_RLatLon0.03_PT017H.grib2 2026-04-26 06:10 1.5M
20260426T00Z_MSC_CAPS_AirTemp_AGL-120m_RLatLon0.03_PT017H.grib2 2026-04-26 06:10 1.8M
20260426T00Z_MSC_CAPS_AirTemp_AGL-2m_RLatLon0.03_PT017H.grib2 2026-04-26 06:10 2.1M
20260426T00Z_MSC_CAPS_AirTemp_AGL-40m_RLatLon0.03_PT017H.grib2 2026-04-26 06:10 1.9M
20260426T00Z_MSC_CAPS_AirTemp_AGL-80m_RLatLon0.03_PT017H.grib2 2026-04-26 06:10 1.8M
20260426T00Z_MSC_CAPS_AirTemp_IsbL-0050_RLatLon0.03_PT017H.grib2 2026-04-26 06:10 693K
20260426T00Z_MSC_CAPS_AirTemp_IsbL-0100_RLatLon0.03_PT017H.grib2 2026-04-26 06:10 782K
20260426T00Z_MSC_CAPS_AirTemp_IsbL-0150_RLatLon0.03_PT017H.grib2 2026-04-26 06:10 1.0M
20260426T00Z_MSC_CAPS_AirTemp_IsbL-0175_RLatLon0.03_PT017H.grib2 2026-04-26 06:10 759K
20260426T00Z_MSC_CAPS_AirTemp_IsbL-0200_RLatLon0.03_PT017H.grib2 2026-04-26 06:10 780K
20260426T00Z_MSC_CAPS_AirTemp_IsbL-0225_RLatLon0.03_PT017H.grib2 2026-04-26 06:10 779K
20260426T00Z_MSC_CAPS_AirTemp_IsbL-0250_RLatLon0.03_PT017H.grib2 2026-04-26 06:10 1.0M
20260426T00Z_MSC_CAPS_AirTemp_IsbL-0275_RLatLon0.03_PT017H.grib2 2026-04-26 06:10 1.0M
20260426T00Z_MSC_CAPS_AirTemp_IsbL-0300_RLatLon0.03_PT017H.grib2 2026-04-26 06:10 1.0M
20260426T00Z_MSC_CAPS_AirTemp_IsbL-0350_RLatLon0.03_PT017H.grib2 2026-04-26 06:10 745K
20260426T00Z_MSC_CAPS_AirTemp_IsbL-0400_RLatLon0.03_PT017H.grib2 2026-04-26 06:10 748K
20260426T00Z_MSC_CAPS_AirTemp_IsbL-0450_RLatLon0.03_PT017H.grib2 2026-04-26 06:10 764K
20260426T00Z_MSC_CAPS_AirTemp_IsbL-0500_RLatLon0.03_PT017H.grib2 2026-04-26 06:10 783K
20260426T00Z_MSC_CAPS_AirTemp_IsbL-0550_RLatLon0.03_PT017H.grib2 2026-04-26 06:10 794K
20260426T00Z_MSC_CAPS_AirTemp_IsbL-0600_RLatLon0.03_PT017H.grib2 2026-04-26 06:10 812K
20260426T00Z_MSC_CAPS_AirTemp_IsbL-0650_RLatLon0.03_PT017H.grib2 2026-04-26 06:10 836K
20260426T00Z_MSC_CAPS_AirTemp_IsbL-0700_RLatLon0.03_PT017H.grib2 2026-04-26 06:10 866K
20260426T00Z_MSC_CAPS_AirTemp_IsbL-0750_RLatLon0.03_PT017H.grib2 2026-04-26 06:10 1.0M
20260426T00Z_MSC_CAPS_AirTemp_IsbL-0800_RLatLon0.03_PT017H.grib2 2026-04-26 06:10 1.0M
20260426T00Z_MSC_CAPS_AirTemp_IsbL-0850_RLatLon0.03_PT017H.grib2 2026-04-26 06:10 1.1M
20260426T00Z_MSC_CAPS_AirTemp_IsbL-0875_RLatLon0.03_PT017H.grib2 2026-04-26 06:10 1.1M
20260426T00Z_MSC_CAPS_AirTemp_IsbL-0900_RLatLon0.03_PT017H.grib2 2026-04-26 06:10 1.1M
20260426T00Z_MSC_CAPS_AirTemp_IsbL-0925_RLatLon0.03_PT017H.grib2 2026-04-26 06:10 1.1M
20260426T00Z_MSC_CAPS_AirTemp_IsbL-0950_RLatLon0.03_PT017H.grib2 2026-04-26 06:10 1.2M
20260426T00Z_MSC_CAPS_AirTemp_IsbL-0970_RLatLon0.03_PT017H.grib2 2026-04-26 06:10 1.2M
20260426T00Z_MSC_CAPS_AirTemp_IsbL-0985_RLatLon0.03_PT017H.grib2 2026-04-26 06:10 1.2M
20260426T00Z_MSC_CAPS_AirTemp_IsbL-1000_RLatLon0.03_PT017H.grib2 2026-04-26 06:10 1.1M
20260426T00Z_MSC_CAPS_AirTemp_IsbL-1015_RLatLon0.03_PT017H.grib2 2026-04-26 06:10 1.1M
20260426T00Z_MSC_CAPS_Albedo_Sfc_RLatLon0.03_PT017H.grib2 2026-04-26 06:10 2.7M
20260426T00Z_MSC_CAPS_CAPE_Sfc_RLatLon0.03_PT017H.grib2 2026-04-26 06:10 59K
20260426T00Z_MSC_CAPS_CloudWater_EAtm_RLatLon0.03_PT017H.grib2 2026-04-26 06:10 1.4M
20260426T00Z_MSC_CAPS_ConvectivePrecip-Accum_Sfc_RLatLon0.03_PT017H.grib2 2026-04-26 06:10 3.2M
20260426T00Z_MSC_CAPS_DewPointDepression_AGL-120m_RLatLon0.03_PT017H.grib2 2026-04-26 06:10 2.1M
20260426T00Z_MSC_CAPS_DewPointDepression_AGL-2m_RLatLon0.03_PT017H.grib2 2026-04-26 06:10 2.2M
20260426T00Z_MSC_CAPS_DewPointDepression_AGL-40m_RLatLon0.03_PT017H.grib2 2026-04-26 06:10 2.1M
20260426T00Z_MSC_CAPS_DewPointDepression_AGL-80m_RLatLon0.03_PT017H.grib2 2026-04-26 06:10 2.1M
20260426T00Z_MSC_CAPS_DewPointDepression_IsbL-0050_RLatLon0.03_PT017H.grib2 2026-04-26 06:10 3.7K
20260426T00Z_MSC_CAPS_DewPointDepression_IsbL-0100_RLatLon0.03_PT017H.grib2 2026-04-26 06:10 118K
20260426T00Z_MSC_CAPS_DewPointDepression_IsbL-0150_RLatLon0.03_PT017H.grib2 2026-04-26 06:10 136K
20260426T00Z_MSC_CAPS_DewPointDepression_IsbL-0175_RLatLon0.03_PT017H.grib2 2026-04-26 06:10 259K
20260426T00Z_MSC_CAPS_DewPointDepression_IsbL-0200_RLatLon0.03_PT017H.grib2 2026-04-26 06:10 420K
20260426T00Z_MSC_CAPS_DewPointDepression_IsbL-0225_RLatLon0.03_PT017H.grib2 2026-04-26 06:10 637K
20260426T00Z_MSC_CAPS_DewPointDepression_IsbL-0250_RLatLon0.03_PT017H.grib2 2026-04-26 06:10 845K
20260426T00Z_MSC_CAPS_DewPointDepression_IsbL-0275_RLatLon0.03_PT017H.grib2 2026-04-26 06:10 1.0M
20260426T00Z_MSC_CAPS_DewPointDepression_IsbL-0300_RLatLon0.03_PT017H.grib2 2026-04-26 06:10 1.0M
20260426T00Z_MSC_CAPS_DewPointDepression_IsbL-0350_RLatLon0.03_PT017H.grib2 2026-04-26 06:10 1.1M
20260426T00Z_MSC_CAPS_DewPointDepression_IsbL-0400_RLatLon0.03_PT017H.grib2 2026-04-26 06:10 1.1M
20260426T00Z_MSC_CAPS_DewPointDepression_IsbL-0450_RLatLon0.03_PT017H.grib2 2026-04-26 06:10 1.1M
20260426T00Z_MSC_CAPS_DewPointDepression_IsbL-0500_RLatLon0.03_PT017H.grib2 2026-04-26 06:10 1.2M
20260426T00Z_MSC_CAPS_DewPointDepression_IsbL-0550_RLatLon0.03_PT017H.grib2 2026-04-26 06:10 1.2M
20260426T00Z_MSC_CAPS_DewPointDepression_IsbL-0600_RLatLon0.03_PT017H.grib2 2026-04-26 06:10 1.2M
20260426T00Z_MSC_CAPS_DewPointDepression_IsbL-0650_RLatLon0.03_PT017H.grib2 2026-04-26 06:10 1.3M
20260426T00Z_MSC_CAPS_DewPointDepression_IsbL-0700_RLatLon0.03_PT017H.grib2 2026-04-26 06:10 1.3M
20260426T00Z_MSC_CAPS_DewPointDepression_IsbL-0750_RLatLon0.03_PT017H.grib2 2026-04-26 06:10 1.3M
20260426T00Z_MSC_CAPS_DewPointDepression_IsbL-0800_RLatLon0.03_PT017H.grib2 2026-04-26 06:10 1.3M
20260426T00Z_MSC_CAPS_DewPointDepression_IsbL-0850_RLatLon0.03_PT017H.grib2 2026-04-26 06:10 1.3M
20260426T00Z_MSC_CAPS_DewPointDepression_IsbL-0875_RLatLon0.03_PT017H.grib2 2026-04-26 06:10 1.3M
20260426T00Z_MSC_CAPS_DewPointDepression_IsbL-0900_RLatLon0.03_PT017H.grib2 2026-04-26 06:10 1.3M
20260426T00Z_MSC_CAPS_DewPointDepression_IsbL-0925_RLatLon0.03_PT017H.grib2 2026-04-26 06:10 1.3M
20260426T00Z_MSC_CAPS_DewPointDepression_IsbL-0950_RLatLon0.03_PT017H.grib2 2026-04-26 06:10 1.3M
20260426T00Z_MSC_CAPS_DewPointDepression_IsbL-0970_RLatLon0.03_PT017H.grib2 2026-04-26 06:10 1.3M
20260426T00Z_MSC_CAPS_DewPointDepression_IsbL-0985_RLatLon0.03_PT017H.grib2 2026-04-26 06:10 1.4M
20260426T00Z_MSC_CAPS_DewPointDepression_IsbL-1000_RLatLon0.03_PT017H.grib2 2026-04-26 06:10 1.4M
20260426T00Z_MSC_CAPS_DewPointDepression_IsbL-1015_RLatLon0.03_PT017H.grib2 2026-04-26 06:10 1.3M
20260426T00Z_MSC_CAPS_DewPoint_AGL-120m_RLatLon0.03_PT017H.grib2 2026-04-26 06:10 3.7M
20260426T00Z_MSC_CAPS_DewPoint_AGL-2m_RLatLon0.03_PT017H.grib2 2026-04-26 06:10 2.2M
20260426T00Z_MSC_CAPS_DewPoint_AGL-40m_RLatLon0.03_PT017H.grib2 2026-04-26 06:10 3.8M
20260426T00Z_MSC_CAPS_DewPoint_AGL-80m_RLatLon0.03_PT017H.grib2 2026-04-26 06:10 3.7M
20260426T00Z_MSC_CAPS_DownwardLongwaveRadiationFlux-Accum_Sfc_RLatLon0.03_PT017H.grib2 2026-04-26 06:10 2.6M
20260426T00Z_MSC_CAPS_DownwardShortwaveRadiationFlux-Accum_NTAtm_RLatLon0.03_PT017H.grib2 2026-04-26 06:10 459K
20260426T00Z_MSC_CAPS_DownwardShortwaveRadiationFlux-Accum_Sfc_RLatLon0.03_PT017H.grib2 2026-04-26 06:10 2.8M
20260426T00Z_MSC_CAPS_FreezingRain-Accum_Sfc_RLatLon0.03_PT017H.grib2 2026-04-26 06:10 531K
20260426T00Z_MSC_CAPS_GeopotentialHeight_IsbL-0050_RLatLon0.03_PT017H.grib2 2026-04-26 06:10 829K
20260426T00Z_MSC_CAPS_GeopotentialHeight_IsbL-0100_RLatLon0.03_PT017H.grib2 2026-04-26 06:10 815K
20260426T00Z_MSC_CAPS_GeopotentialHeight_IsbL-0150_RLatLon0.03_PT017H.grib2 2026-04-26 06:10 594K
20260426T00Z_MSC_CAPS_GeopotentialHeight_IsbL-0175_RLatLon0.03_PT017H.grib2 2026-04-26 06:10 702K
20260426T00Z_MSC_CAPS_GeopotentialHeight_IsbL-0200_RLatLon0.03_PT017H.grib2 2026-04-26 06:10 721K
20260426T00Z_MSC_CAPS_GeopotentialHeight_IsbL-0225_RLatLon0.03_PT017H.grib2 2026-04-26 06:10 735K
20260426T00Z_MSC_CAPS_GeopotentialHeight_IsbL-0250_RLatLon0.03_PT017H.grib2 2026-04-26 06:10 752K
20260426T00Z_MSC_CAPS_GeopotentialHeight_IsbL-0275_RLatLon0.03_PT017H.grib2 2026-04-26 06:10 765K
20260426T00Z_MSC_CAPS_GeopotentialHeight_IsbL-0300_RLatLon0.03_PT017H.grib2 2026-04-26 06:10 772K
20260426T00Z_MSC_CAPS_GeopotentialHeight_IsbL-0350_RLatLon0.03_PT017H.grib2 2026-04-26 06:10 776K
20260426T00Z_MSC_CAPS_GeopotentialHeight_IsbL-0400_RLatLon0.03_PT017H.grib2 2026-04-26 06:10 770K
20260426T00Z_MSC_CAPS_GeopotentialHeight_IsbL-0450_RLatLon0.03_PT017H.grib2 2026-04-26 06:10 761K
20260426T00Z_MSC_CAPS_GeopotentialHeight_IsbL-0500_RLatLon0.03_PT017H.grib2 2026-04-26 06:10 637K
20260426T00Z_MSC_CAPS_GeopotentialHeight_IsbL-0550_RLatLon0.03_PT017H.grib2 2026-04-26 06:10 634K
20260426T00Z_MSC_CAPS_GeopotentialHeight_IsbL-0600_RLatLon0.03_PT017H.grib2 2026-04-26 06:10 633K
20260426T00Z_MSC_CAPS_GeopotentialHeight_IsbL-0650_RLatLon0.03_PT017H.grib2 2026-04-26 06:10 629K
20260426T00Z_MSC_CAPS_GeopotentialHeight_IsbL-0700_RLatLon0.03_PT017H.grib2 2026-04-26 06:10 625K
20260426T00Z_MSC_CAPS_GeopotentialHeight_IsbL-0750_RLatLon0.03_PT017H.grib2 2026-04-26 06:10 802K
20260426T00Z_MSC_CAPS_GeopotentialHeight_IsbL-0800_RLatLon0.03_PT017H.grib2 2026-04-26 06:10 809K
20260426T00Z_MSC_CAPS_GeopotentialHeight_IsbL-0850_RLatLon0.03_PT017H.grib2 2026-04-26 06:10 819K
20260426T00Z_MSC_CAPS_GeopotentialHeight_IsbL-0875_RLatLon0.03_PT017H.grib2 2026-04-26 06:10 827K
20260426T00Z_MSC_CAPS_GeopotentialHeight_IsbL-0900_RLatLon0.03_PT017H.grib2 2026-04-26 06:10 833K
20260426T00Z_MSC_CAPS_GeopotentialHeight_IsbL-0925_RLatLon0.03_PT017H.grib2 2026-04-26 06:10 830K
20260426T00Z_MSC_CAPS_GeopotentialHeight_IsbL-0950_RLatLon0.03_PT017H.grib2 2026-04-26 06:10 667K
20260426T00Z_MSC_CAPS_GeopotentialHeight_IsbL-0970_RLatLon0.03_PT017H.grib2 2026-04-26 06:10 674K
20260426T00Z_MSC_CAPS_GeopotentialHeight_IsbL-0985_RLatLon0.03_PT017H.grib2 2026-04-26 06:10 681K
20260426T00Z_MSC_CAPS_GeopotentialHeight_IsbL-1000_RLatLon0.03_PT017H.grib2 2026-04-26 06:10 688K
20260426T00Z_MSC_CAPS_GeopotentialHeight_IsbL-1015_RLatLon0.03_PT017H.grib2 2026-04-26 06:10 694K
20260426T00Z_MSC_CAPS_GeopotentialHeight_Sfc_RLatLon0.03_PT017H.grib2 2026-04-26 06:10 1.0M
20260426T00Z_MSC_CAPS_IcePellets-Accum_Sfc_RLatLon0.03_PT017H.grib2 2026-04-26 06:10 33K
20260426T00Z_MSC_CAPS_LatentHeatNetFlux_Sfc_RLatLon0.03_PT017H.grib2 2026-04-26 06:10 1.9M
20260426T00Z_MSC_CAPS_LiftedIndex-MU-VT_IsbL-0500_RLatLon0.03_PT017H.grib2 2026-04-26 06:10 3.3M
20260426T00Z_MSC_CAPS_MixedLayerThickness_Sfc_RLatLon0.03_PT017H.nc 2026-04-26 06:11 17M
20260426T00Z_MSC_CAPS_NetLongwaveRadiationFlux-Accum_Sfc_RLatLon0.03_PT017H.grib2 2026-04-26 06:10 2.8M
20260426T00Z_MSC_CAPS_NetShortwaveRadiationFlux-Accum_Sfc_RLatLon0.03_PT017H.grib2 2026-04-26 06:10 2.8M
20260426T00Z_MSC_CAPS_PlanetaryBoundaryLayerHeight_Sfc_RLatLon0.03_PT017H.grib2 2026-04-26 06:10 2.8M
20260426T00Z_MSC_CAPS_Precip-Accum_Sfc_RLatLon0.03_PT017H.grib2 2026-04-26 06:10 4.2M
20260426T00Z_MSC_CAPS_PrecipRate_Sfc_RLatLon0.03_PT017H.grib2 2026-04-26 06:10 581K
20260426T00Z_MSC_CAPS_PrecipType-Instant_Sfc_RLatLon0.03_PT017H.grib2 2026-04-26 06:10 1.8M
20260426T00Z_MSC_CAPS_Pressure_MSL_RLatLon0.03_PT017H.grib2 2026-04-26 06:10 927K
20260426T00Z_MSC_CAPS_Pressure_Sfc_RLatLon0.03_PT017H.grib2 2026-04-26 06:10 1.3M
20260426T00Z_MSC_CAPS_RadiativeTemp_Sfc_RLatLon0.03_PT017H.grib2 2026-04-26 06:10 2.1M
20260426T00Z_MSC_CAPS_Rain-Accum_Sfc_RLatLon0.03_PT017H.grib2 2026-04-26 06:10 1.7M
20260426T00Z_MSC_CAPS_RelativeHumidity_AGL-120m_RLatLon0.03_PT017H.grib2 2026-04-26 06:10 2.8M
20260426T00Z_MSC_CAPS_RelativeHumidity_AGL-2m_RLatLon0.03_PT017H.grib2 2026-04-26 06:10 3.0M
20260426T00Z_MSC_CAPS_RelativeHumidity_AGL-40m_RLatLon0.03_PT017H.grib2 2026-04-26 06:10 2.9M
20260426T00Z_MSC_CAPS_RelativeHumidity_AGL-80m_RLatLon0.03_PT017H.grib2 2026-04-26 06:10 2.8M
20260426T00Z_MSC_CAPS_RelativeHumidity_IsbL-0050_RLatLon0.03_PT017H.grib2 2026-04-26 06:10 1.0M
20260426T00Z_MSC_CAPS_RelativeHumidity_IsbL-0100_RLatLon0.03_PT017H.grib2 2026-04-26 06:10 1.1M
20260426T00Z_MSC_CAPS_RelativeHumidity_IsbL-0150_RLatLon0.03_PT017H.grib2 2026-04-26 06:10 757K
20260426T00Z_MSC_CAPS_RelativeHumidity_IsbL-0175_RLatLon0.03_PT017H.grib2 2026-04-26 06:10 501K
20260426T00Z_MSC_CAPS_RelativeHumidity_IsbL-0200_RLatLon0.03_PT017H.grib2 2026-04-26 06:10 684K
20260426T00Z_MSC_CAPS_RelativeHumidity_IsbL-0225_RLatLon0.03_PT017H.grib2 2026-04-26 06:10 859K
20260426T00Z_MSC_CAPS_RelativeHumidity_IsbL-0250_RLatLon0.03_PT017H.grib2 2026-04-26 06:10 1.1M
20260426T00Z_MSC_CAPS_RelativeHumidity_IsbL-0275_RLatLon0.03_PT017H.grib2 2026-04-26 06:10 1.4M
20260426T00Z_MSC_CAPS_RelativeHumidity_IsbL-0300_RLatLon0.03_PT017H.grib2 2026-04-26 06:10 1.7M
20260426T00Z_MSC_CAPS_RelativeHumidity_IsbL-0350_RLatLon0.03_PT017H.grib2 2026-04-26 06:10 2.0M
20260426T00Z_MSC_CAPS_RelativeHumidity_IsbL-0400_RLatLon0.03_PT017H.grib2 2026-04-26 06:10 2.1M
20260426T00Z_MSC_CAPS_RelativeHumidity_IsbL-0450_RLatLon0.03_PT017H.grib2 2026-04-26 06:10 2.0M
20260426T00Z_MSC_CAPS_RelativeHumidity_IsbL-0500_RLatLon0.03_PT017H.grib2 2026-04-26 06:10 2.0M
20260426T00Z_MSC_CAPS_RelativeHumidity_IsbL-0550_RLatLon0.03_PT017H.grib2 2026-04-26 06:10 2.2M
20260426T00Z_MSC_CAPS_RelativeHumidity_IsbL-0600_RLatLon0.03_PT017H.grib2 2026-04-26 06:10 2.2M
20260426T00Z_MSC_CAPS_RelativeHumidity_IsbL-0650_RLatLon0.03_PT017H.grib2 2026-04-26 06:10 2.3M
20260426T00Z_MSC_CAPS_RelativeHumidity_IsbL-0700_RLatLon0.03_PT017H.grib2 2026-04-26 06:10 2.3M
20260426T00Z_MSC_CAPS_RelativeHumidity_IsbL-0750_RLatLon0.03_PT017H.grib2 2026-04-26 06:10 2.4M
20260426T00Z_MSC_CAPS_RelativeHumidity_IsbL-0800_RLatLon0.03_PT017H.grib2 2026-04-26 06:10 2.4M
20260426T00Z_MSC_CAPS_RelativeHumidity_IsbL-0850_RLatLon0.03_PT017H.grib2 2026-04-26 06:10 2.5M
20260426T00Z_MSC_CAPS_RelativeHumidity_IsbL-0875_RLatLon0.03_PT017H.grib2 2026-04-26 06:10 2.5M
20260426T00Z_MSC_CAPS_RelativeHumidity_IsbL-0900_RLatLon0.03_PT017H.grib2 2026-04-26 06:10 2.5M
20260426T00Z_MSC_CAPS_RelativeHumidity_IsbL-0925_RLatLon0.03_PT017H.grib2 2026-04-26 06:10 2.7M
20260426T00Z_MSC_CAPS_RelativeHumidity_IsbL-0950_RLatLon0.03_PT017H.grib2 2026-04-26 06:10 2.7M
20260426T00Z_MSC_CAPS_RelativeHumidity_IsbL-0970_RLatLon0.03_PT017H.grib2 2026-04-26 06:10 2.8M
20260426T00Z_MSC_CAPS_RelativeHumidity_IsbL-0985_RLatLon0.03_PT017H.grib2 2026-04-26 06:10 2.9M
20260426T00Z_MSC_CAPS_RelativeHumidity_IsbL-1000_RLatLon0.03_PT017H.grib2 2026-04-26 06:10 3.0M
20260426T00Z_MSC_CAPS_RelativeHumidity_IsbL-1015_RLatLon0.03_PT017H.grib2 2026-04-26 06:10 3.0M
20260426T00Z_MSC_CAPS_Runoff-Accum_Sfc_RLatLon0.03_PT017H.grib2 2026-04-26 06:10 274K
20260426T00Z_MSC_CAPS_SeaIceAreaFraction_Sfc_RLatLon0.03_PT017H.nc 2026-04-26 06:11 15M
20260426T00Z_MSC_CAPS_SeaIceCompressiveStrength_Sfc_RLatLon0.03_PT017H.nc 2026-04-26 06:11 15M
20260426T00Z_MSC_CAPS_SeaIceDivergence_Sfc_RLatLon0.03_PT017H.nc 2026-04-26 06:11 15M
20260426T00Z_MSC_CAPS_SeaIceInternalPressure_Sfc_RLatLon0.03_PT017H.nc 2026-04-26 06:11 15M
20260426T00Z_MSC_CAPS_SeaIceShear_Sfc_RLatLon0.03_PT017H.nc 2026-04-26 06:11 15M
20260426T00Z_MSC_CAPS_SeaIceSnowTemp_Sfc_RLatLon0.03_PT017H.nc 2026-04-26 06:11 15M
20260426T00Z_MSC_CAPS_SeaIceSnowVolume_Sfc_RLatLon0.03_PT017H.nc 2026-04-26 06:11 15M
20260426T00Z_MSC_CAPS_SeaIceVelocityX_Sfc_RLatLon0.03_PT017H.nc 2026-04-26 06:11 15M
20260426T00Z_MSC_CAPS_SeaIceVelocityY_Sfc_RLatLon0.03_PT017H.nc 2026-04-26 06:11 15M
20260426T00Z_MSC_CAPS_SeaIceVolume_Sfc_RLatLon0.03_PT017H.nc 2026-04-26 06:11 15M
20260426T00Z_MSC_CAPS_SeaSurfaceHeight_Sfc_RLatLon0.03_PT017H.nc 2026-04-26 06:11 16M
20260426T00Z_MSC_CAPS_SeaWaterSalinity_DBS-0.5m_RLatLon0.03_PT017H.nc 2026-04-26 06:11 16M
20260426T00Z_MSC_CAPS_SeaWaterSalinity_DBS-all_RLatLon0.03_PT017H.nc 2026-04-26 06:11 107M
20260426T00Z_MSC_CAPS_SeaWaterTemp_DBS-0.5m_RLatLon0.03_PT017H.nc 2026-04-26 06:11 14M
20260426T00Z_MSC_CAPS_SeaWaterTemp_DBS-all_RLatLon0.03_PT017H.nc 2026-04-26 06:11 87M
20260426T00Z_MSC_CAPS_SeaWaterVelocityX_DBS-0.5m_RLatLon0.03_PT017H.nc 2026-04-26 06:11 17M
20260426T00Z_MSC_CAPS_SeaWaterVelocityX_DBS-all_RLatLon0.03_PT017H.nc 2026-04-26 06:11 210M
20260426T00Z_MSC_CAPS_SeaWaterVelocityY_DBS-0.5m_RLatLon0.03_PT017H.nc 2026-04-26 06:11 17M
20260426T00Z_MSC_CAPS_SeaWaterVelocityY_DBS-all_RLatLon0.03_PT017H.nc 2026-04-26 06:11 215M
20260426T00Z_MSC_CAPS_SensibleHeatNetFlux_Sfc_RLatLon0.03_PT017H.grib2 2026-04-26 06:10 2.2M
20260426T00Z_MSC_CAPS_ShowalterIndex_IsbL-0500_RLatLon0.03_PT017H.grib2 2026-04-26 06:10 4.3M
20260426T00Z_MSC_CAPS_Snow-Accum_Sfc_RLatLon0.03_PT017H.grib2 2026-04-26 06:10 3.3M
20260426T00Z_MSC_CAPS_SnowDensity_Sfc_RLatLon0.03_PT017H.grib2 2026-04-26 06:10 1.3M
20260426T00Z_MSC_CAPS_SnowDepthWaterEquivalent_Sfc_RLatLon0.03_PT017H.grib2 2026-04-26 06:10 718K
20260426T00Z_MSC_CAPS_SnowDepth_Sfc_RLatLon0.03_PT017H.grib2 2026-04-26 06:10 1.3M
20260426T00Z_MSC_CAPS_SoilTemp_DBS-0to10cm_RLatLon0.03_PT017H.grib2 2026-04-26 06:10 1.5M
20260426T00Z_MSC_CAPS_SoilTemp_Sfc_RLatLon0.03_PT017H.grib2 2026-04-26 06:10 1.8M
20260426T00Z_MSC_CAPS_SoilVolumetricIceContent_Sfc_RLatLon0.03_PT017H.grib2 2026-04-26 06:10 1.4M
20260426T00Z_MSC_CAPS_SoilVolumetricWaterContent_DBS-0to10cm_RLatLon0.03_PT017H.grib2 2026-04-26 06:10 1.0M
20260426T00Z_MSC_CAPS_SoilVolumetricWaterContent_DBS-0to1cm_RLatLon0.03_PT017H.grib2 2026-04-26 06:10 1.7M
20260426T00Z_MSC_CAPS_SpecificHumidity_AGL-120m_RLatLon0.03_PT017H.grib2 2026-04-26 06:10 1.7M
20260426T00Z_MSC_CAPS_SpecificHumidity_AGL-2m_RLatLon0.03_PT017H.grib2 2026-04-26 06:10 2.1M
20260426T00Z_MSC_CAPS_SpecificHumidity_AGL-40m_RLatLon0.03_PT017H.grib2 2026-04-26 06:10 1.8M
20260426T00Z_MSC_CAPS_SpecificHumidity_AGL-80m_RLatLon0.03_PT017H.grib2 2026-04-26 06:10 1.7M
20260426T00Z_MSC_CAPS_SpecificHumidity_IsbL-0050_RLatLon0.03_PT017H.grib2 2026-04-26 06:10 913K
20260426T00Z_MSC_CAPS_SpecificHumidity_IsbL-0100_RLatLon0.03_PT017H.grib2 2026-04-26 06:10 792K
20260426T00Z_MSC_CAPS_SpecificHumidity_IsbL-0150_RLatLon0.03_PT017H.grib2 2026-04-26 06:10 880K
20260426T00Z_MSC_CAPS_SpecificHumidity_IsbL-0175_RLatLon0.03_PT017H.grib2 2026-04-26 06:10 1.0M
20260426T00Z_MSC_CAPS_SpecificHumidity_IsbL-0200_RLatLon0.03_PT017H.grib2 2026-04-26 06:10 1.0M
20260426T00Z_MSC_CAPS_SpecificHumidity_IsbL-0225_RLatLon0.03_PT017H.grib2 2026-04-26 06:10 1.0M
20260426T00Z_MSC_CAPS_SpecificHumidity_IsbL-0250_RLatLon0.03_PT017H.grib2 2026-04-26 06:10 1.0M
20260426T00Z_MSC_CAPS_SpecificHumidity_IsbL-0275_RLatLon0.03_PT017H.grib2 2026-04-26 06:10 1.1M
20260426T00Z_MSC_CAPS_SpecificHumidity_IsbL-0300_RLatLon0.03_PT017H.grib2 2026-04-26 06:10 1.0M
20260426T00Z_MSC_CAPS_SpecificHumidity_IsbL-0350_RLatLon0.03_PT017H.grib2 2026-04-26 06:10 948K
20260426T00Z_MSC_CAPS_SpecificHumidity_IsbL-0400_RLatLon0.03_PT017H.grib2 2026-04-26 06:10 1.3M
20260426T00Z_MSC_CAPS_SpecificHumidity_IsbL-0450_RLatLon0.03_PT017H.grib2 2026-04-26 06:10 1.1M
20260426T00Z_MSC_CAPS_SpecificHumidity_IsbL-0500_RLatLon0.03_PT017H.grib2 2026-04-26 06:10 1.3M
20260426T00Z_MSC_CAPS_SpecificHumidity_IsbL-0550_RLatLon0.03_PT017H.grib2 2026-04-26 06:10 1.2M
20260426T00Z_MSC_CAPS_SpecificHumidity_IsbL-0600_RLatLon0.03_PT017H.grib2 2026-04-26 06:10 1.4M
20260426T00Z_MSC_CAPS_SpecificHumidity_IsbL-0650_RLatLon0.03_PT017H.grib2 2026-04-26 06:10 1.6M
20260426T00Z_MSC_CAPS_SpecificHumidity_IsbL-0700_RLatLon0.03_PT017H.grib2 2026-04-26 06:10 1.6M
20260426T00Z_MSC_CAPS_SpecificHumidity_IsbL-0750_RLatLon0.03_PT017H.grib2 2026-04-26 06:10 1.4M
20260426T00Z_MSC_CAPS_SpecificHumidity_IsbL-0800_RLatLon0.03_PT017H.grib2 2026-04-26 06:10 1.5M
20260426T00Z_MSC_CAPS_SpecificHumidity_IsbL-0850_RLatLon0.03_PT017H.grib2 2026-04-26 06:10 1.6M
20260426T00Z_MSC_CAPS_SpecificHumidity_IsbL-0875_RLatLon0.03_PT017H.grib2 2026-04-26 06:10 1.6M
20260426T00Z_MSC_CAPS_SpecificHumidity_IsbL-0900_RLatLon0.03_PT017H.grib2 2026-04-26 06:10 1.7M
20260426T00Z_MSC_CAPS_SpecificHumidity_IsbL-0925_RLatLon0.03_PT017H.grib2 2026-04-26 06:10 1.8M
20260426T00Z_MSC_CAPS_SpecificHumidity_IsbL-0950_RLatLon0.03_PT017H.grib2 2026-04-26 06:10 1.8M
20260426T00Z_MSC_CAPS_SpecificHumidity_IsbL-0970_RLatLon0.03_PT017H.grib2 2026-04-26 06:10 1.9M
20260426T00Z_MSC_CAPS_SpecificHumidity_IsbL-0985_RLatLon0.03_PT017H.grib2 2026-04-26 06:10 2.0M
20260426T00Z_MSC_CAPS_SpecificHumidity_IsbL-1000_RLatLon0.03_PT017H.grib2 2026-04-26 06:10 2.0M
20260426T00Z_MSC_CAPS_SpecificHumidity_IsbL-1015_RLatLon0.03_PT017H.grib2 2026-04-26 06:10 2.1M
20260426T00Z_MSC_CAPS_SpecificHumidity_Sfc_RLatLon0.03_PT017H.grib2 2026-04-26 06:10 2.5M
20260426T00Z_MSC_CAPS_StormRelativeHelicity_Sfc_RLatLon0.03_PT017H.grib2 2026-04-26 06:10 2.7M
20260426T00Z_MSC_CAPS_Thickness_IsbL-1000to0500_RLatLon0.03_PT017H.grib2 2026-04-26 06:10 404K
20260426T00Z_MSC_CAPS_TotalCloudCover_Sfc_RLatLon0.03_PT017H.grib2 2026-04-26 06:10 3.6M
20260426T00Z_MSC_CAPS_TurboclineDepth_Sfc_RLatLon0.03_PT017H.nc 2026-04-26 06:11 16M
20260426T00Z_MSC_CAPS_UpwardLongwaveRadiationFlux_NTAtm_RLatLon0.03_PT017H.grib2 2026-04-26 06:10 2.9M
20260426T00Z_MSC_CAPS_UpwardShortwaveRadiationFlux_NTAtm_RLatLon0.03_PT017H.grib2 2026-04-26 06:10 2.6M
20260426T00Z_MSC_CAPS_VerticalVelocity_IsbL-0250_RLatLon0.03_PT017H.grib2 2026-04-26 06:10 861K
20260426T00Z_MSC_CAPS_VerticalVelocity_IsbL-0500_RLatLon0.03_PT017H.grib2 2026-04-26 06:10 1.1M
20260426T00Z_MSC_CAPS_VerticalVelocity_IsbL-0700_RLatLon0.03_PT017H.grib2 2026-04-26 06:10 915K
20260426T00Z_MSC_CAPS_VerticalVelocity_IsbL-0850_RLatLon0.03_PT017H.grib2 2026-04-26 06:10 1.4M
20260426T00Z_MSC_CAPS_VerticalVelocity_IsbL-1000_RLatLon0.03_PT017H.grib2 2026-04-26 06:10 1.4M
20260426T00Z_MSC_CAPS_WindDir_AGL-10m_RLatLon0.03_PT017H.grib2 2026-04-26 06:10 2.4M
20260426T00Z_MSC_CAPS_WindDir_AGL-120m_RLatLon0.03_PT017H.grib2 2026-04-26 06:10 1.3M
20260426T00Z_MSC_CAPS_WindDir_AGL-40m_RLatLon0.03_PT017H.grib2 2026-04-26 06:10 1.4M
20260426T00Z_MSC_CAPS_WindDir_AGL-80m_RLatLon0.03_PT017H.grib2 2026-04-26 06:10 1.3M
20260426T00Z_MSC_CAPS_WindDir_IsbL-0050_RLatLon0.03_PT017H.grib2 2026-04-26 06:10 1.1M
20260426T00Z_MSC_CAPS_WindDir_IsbL-0100_RLatLon0.03_PT017H.grib2 2026-04-26 06:10 1.0M
20260426T00Z_MSC_CAPS_WindDir_IsbL-0150_RLatLon0.03_PT017H.grib2 2026-04-26 06:10 1.1M
20260426T00Z_MSC_CAPS_WindDir_IsbL-0175_RLatLon0.03_PT017H.grib2 2026-04-26 06:10 1.1M
20260426T00Z_MSC_CAPS_WindDir_IsbL-0200_RLatLon0.03_PT017H.grib2 2026-04-26 06:10 1.2M
20260426T00Z_MSC_CAPS_WindDir_IsbL-0225_RLatLon0.03_PT017H.grib2 2026-04-26 06:10 1.2M
20260426T00Z_MSC_CAPS_WindDir_IsbL-0250_RLatLon0.03_PT017H.grib2 2026-04-26 06:10 1.1M
20260426T00Z_MSC_CAPS_WindDir_IsbL-0275_RLatLon0.03_PT017H.grib2 2026-04-26 06:10 1.1M
20260426T00Z_MSC_CAPS_WindDir_IsbL-0300_RLatLon0.03_PT017H.grib2 2026-04-26 06:10 1.1M
20260426T00Z_MSC_CAPS_WindDir_IsbL-0350_RLatLon0.03_PT017H.grib2 2026-04-26 06:10 1.1M
20260426T00Z_MSC_CAPS_WindDir_IsbL-0400_RLatLon0.03_PT017H.grib2 2026-04-26 06:10 1.2M
20260426T00Z_MSC_CAPS_WindDir_IsbL-0450_RLatLon0.03_PT017H.grib2 2026-04-26 06:10 1.2M
20260426T00Z_MSC_CAPS_WindDir_IsbL-0500_RLatLon0.03_PT017H.grib2 2026-04-26 06:10 1.2M
20260426T00Z_MSC_CAPS_WindDir_IsbL-0550_RLatLon0.03_PT017H.grib2 2026-04-26 06:10 1.3M
20260426T00Z_MSC_CAPS_WindDir_IsbL-0600_RLatLon0.03_PT017H.grib2 2026-04-26 06:10 1.3M
20260426T00Z_MSC_CAPS_WindDir_IsbL-0650_RLatLon0.03_PT017H.grib2 2026-04-26 06:10 1.4M
20260426T00Z_MSC_CAPS_WindDir_IsbL-0700_RLatLon0.03_PT017H.grib2 2026-04-26 06:10 1.4M
20260426T00Z_MSC_CAPS_WindDir_IsbL-0750_RLatLon0.03_PT017H.grib2 2026-04-26 06:10 1.6M
20260426T00Z_MSC_CAPS_WindDir_IsbL-0800_RLatLon0.03_PT017H.grib2 2026-04-26 06:10 1.7M
20260426T00Z_MSC_CAPS_WindDir_IsbL-0850_RLatLon0.03_PT017H.grib2 2026-04-26 06:10 1.8M
20260426T00Z_MSC_CAPS_WindDir_IsbL-0875_RLatLon0.03_PT017H.grib2 2026-04-26 06:10 1.9M
20260426T00Z_MSC_CAPS_WindDir_IsbL-0900_RLatLon0.03_PT017H.grib2 2026-04-26 06:10 2.0M
20260426T00Z_MSC_CAPS_WindDir_IsbL-0925_RLatLon0.03_PT017H.grib2 2026-04-26 06:10 2.1M
20260426T00Z_MSC_CAPS_WindDir_IsbL-0950_RLatLon0.03_PT017H.grib2 2026-04-26 06:10 2.1M
20260426T00Z_MSC_CAPS_WindDir_IsbL-0970_RLatLon0.03_PT017H.grib2 2026-04-26 06:10 2.1M
20260426T00Z_MSC_CAPS_WindDir_IsbL-0985_RLatLon0.03_PT017H.grib2 2026-04-26 06:10 2.2M
20260426T00Z_MSC_CAPS_WindDir_IsbL-1000_RLatLon0.03_PT017H.grib2 2026-04-26 06:10 2.3M
20260426T00Z_MSC_CAPS_WindDir_IsbL-1015_RLatLon0.03_PT017H.grib2 2026-04-26 06:10 2.4M
20260426T00Z_MSC_CAPS_WindGust-Max_AGL-10m_RLatLon0.03_PT017H.grib2 2026-04-26 06:10 2.5M
20260426T00Z_MSC_CAPS_WindGust-Min_AGL-10m_RLatLon0.03_PT017H.grib2 2026-04-26 06:10 2.5M
20260426T00Z_MSC_CAPS_WindGust_AGL-10m_RLatLon0.03_PT017H.grib2 2026-04-26 06:10 2.5M
20260426T00Z_MSC_CAPS_WindSpeed_AGL-10m_RLatLon0.03_PT017H.grib2 2026-04-26 06:10 2.1M
20260426T00Z_MSC_CAPS_WindSpeed_AGL-120m_RLatLon0.03_PT017H.grib2 2026-04-26 06:10 1.2M
20260426T00Z_MSC_CAPS_WindSpeed_AGL-40m_RLatLon0.03_PT017H.grib2 2026-04-26 06:10 1.2M
20260426T00Z_MSC_CAPS_WindSpeed_AGL-80m_RLatLon0.03_PT017H.grib2 2026-04-26 06:10 1.2M
20260426T00Z_MSC_CAPS_WindSpeed_IsbL-0050_RLatLon0.03_PT017H.grib2 2026-04-26 06:10 1.2M
20260426T00Z_MSC_CAPS_WindSpeed_IsbL-0100_RLatLon0.03_PT017H.grib2 2026-04-26 06:10 1.1M
20260426T00Z_MSC_CAPS_WindSpeed_IsbL-0150_RLatLon0.03_PT017H.grib2 2026-04-26 06:10 1.0M
20260426T00Z_MSC_CAPS_WindSpeed_IsbL-0175_RLatLon0.03_PT017H.grib2 2026-04-26 06:10 1.1M
20260426T00Z_MSC_CAPS_WindSpeed_IsbL-0200_RLatLon0.03_PT017H.grib2 2026-04-26 06:10 1.2M
20260426T00Z_MSC_CAPS_WindSpeed_IsbL-0225_RLatLon0.03_PT017H.grib2 2026-04-26 06:10 939K
20260426T00Z_MSC_CAPS_WindSpeed_IsbL-0250_RLatLon0.03_PT017H.grib2 2026-04-26 06:10 957K
20260426T00Z_MSC_CAPS_WindSpeed_IsbL-0275_RLatLon0.03_PT017H.grib2 2026-04-26 06:10 966K
20260426T00Z_MSC_CAPS_WindSpeed_IsbL-0300_RLatLon0.03_PT017H.grib2 2026-04-26 06:10 1.0M
20260426T00Z_MSC_CAPS_WindSpeed_IsbL-0350_RLatLon0.03_PT017H.grib2 2026-04-26 06:10 1.0M
20260426T00Z_MSC_CAPS_WindSpeed_IsbL-0400_RLatLon0.03_PT017H.grib2 2026-04-26 06:10 1.0M
20260426T00Z_MSC_CAPS_WindSpeed_IsbL-0450_RLatLon0.03_PT017H.grib2 2026-04-26 06:10 1.0M
20260426T00Z_MSC_CAPS_WindSpeed_IsbL-0500_RLatLon0.03_PT017H.grib2 2026-04-26 06:10 1.3M
20260426T00Z_MSC_CAPS_WindSpeed_IsbL-0550_RLatLon0.03_PT017H.grib2 2026-04-26 06:10 1.5M
20260426T00Z_MSC_CAPS_WindSpeed_IsbL-0600_RLatLon0.03_PT017H.grib2 2026-04-26 06:10 1.4M
20260426T00Z_MSC_CAPS_WindSpeed_IsbL-0650_RLatLon0.03_PT017H.grib2 2026-04-26 06:10 1.4M
20260426T00Z_MSC_CAPS_WindSpeed_IsbL-0700_RLatLon0.03_PT017H.grib2 2026-04-26 06:10 1.4M
20260426T00Z_MSC_CAPS_WindSpeed_IsbL-0750_RLatLon0.03_PT017H.grib2 2026-04-26 06:10 1.5M
20260426T00Z_MSC_CAPS_WindSpeed_IsbL-0800_RLatLon0.03_PT017H.grib2 2026-04-26 06:10 1.6M
20260426T00Z_MSC_CAPS_WindSpeed_IsbL-0850_RLatLon0.03_PT017H.grib2 2026-04-26 06:10 1.7M
20260426T00Z_MSC_CAPS_WindSpeed_IsbL-0875_RLatLon0.03_PT017H.grib2 2026-04-26 06:10 1.8M
20260426T00Z_MSC_CAPS_WindSpeed_IsbL-0900_RLatLon0.03_PT017H.grib2 2026-04-26 06:10 1.9M
20260426T00Z_MSC_CAPS_WindSpeed_IsbL-0925_RLatLon0.03_PT017H.grib2 2026-04-26 06:10 1.9M
20260426T00Z_MSC_CAPS_WindSpeed_IsbL-0950_RLatLon0.03_PT017H.grib2 2026-04-26 06:10 2.0M
20260426T00Z_MSC_CAPS_WindSpeed_IsbL-0970_RLatLon0.03_PT017H.grib2 2026-04-26 06:10 2.0M
20260426T00Z_MSC_CAPS_WindSpeed_IsbL-0985_RLatLon0.03_PT017H.grib2 2026-04-26 06:10 2.0M
20260426T00Z_MSC_CAPS_WindSpeed_IsbL-1000_RLatLon0.03_PT017H.grib2 2026-04-26 06:10 2.0M
20260426T00Z_MSC_CAPS_WindSpeed_IsbL-1015_RLatLon0.03_PT017H.grib2 2026-04-26 06:10 2.1M
20260426T00Z_MSC_CAPS_WindU_AGL-10m_RLatLon0.03_PT017H.grib2 2026-04-26 06:10 2.0M
20260426T00Z_MSC_CAPS_WindU_AGL-120m_RLatLon0.03_PT017H.grib2 2026-04-26 06:10 1.2M
20260426T00Z_MSC_CAPS_WindU_AGL-40m_RLatLon0.03_PT017H.grib2 2026-04-26 06:10 1.2M
20260426T00Z_MSC_CAPS_WindU_AGL-80m_RLatLon0.03_PT017H.grib2 2026-04-26 06:10 1.2M
20260426T00Z_MSC_CAPS_WindU_IsbL-0050_RLatLon0.03_PT017H.grib2 2026-04-26 06:10 763K
20260426T00Z_MSC_CAPS_WindU_IsbL-0100_RLatLon0.03_PT017H.grib2 2026-04-26 06:10 785K
20260426T00Z_MSC_CAPS_WindU_IsbL-0150_RLatLon0.03_PT017H.grib2 2026-04-26 06:10 909K
20260426T00Z_MSC_CAPS_WindU_IsbL-0175_RLatLon0.03_PT017H.grib2 2026-04-26 06:10 715K
20260426T00Z_MSC_CAPS_WindU_IsbL-0200_RLatLon0.03_PT017H.grib2 2026-04-26 06:10 856K
20260426T00Z_MSC_CAPS_WindU_IsbL-0225_RLatLon0.03_PT017H.grib2 2026-04-26 06:10 875K
20260426T00Z_MSC_CAPS_WindU_IsbL-0250_RLatLon0.03_PT017H.grib2 2026-04-26 06:10 896K
20260426T00Z_MSC_CAPS_WindU_IsbL-0275_RLatLon0.03_PT017H.grib2 2026-04-26 06:10 702K
20260426T00Z_MSC_CAPS_WindU_IsbL-0300_RLatLon0.03_PT017H.grib2 2026-04-26 06:10 710K
20260426T00Z_MSC_CAPS_WindU_IsbL-0350_RLatLon0.03_PT017H.grib2 2026-04-26 06:10 723K
20260426T00Z_MSC_CAPS_WindU_IsbL-0400_RLatLon0.03_PT017H.grib2 2026-04-26 06:10 941K
20260426T00Z_MSC_CAPS_WindU_IsbL-0450_RLatLon0.03_PT017H.grib2 2026-04-26 06:10 956K
20260426T00Z_MSC_CAPS_WindU_IsbL-0500_RLatLon0.03_PT017H.grib2 2026-04-26 06:10 1.0M
20260426T00Z_MSC_CAPS_WindU_IsbL-0550_RLatLon0.03_PT017H.grib2 2026-04-26 06:10 1.0M
20260426T00Z_MSC_CAPS_WindU_IsbL-0600_RLatLon0.03_PT017H.grib2 2026-04-26 06:10 928K
20260426T00Z_MSC_CAPS_WindU_IsbL-0650_RLatLon0.03_PT017H.grib2 2026-04-26 06:10 966K
20260426T00Z_MSC_CAPS_WindU_IsbL-0700_RLatLon0.03_PT017H.grib2 2026-04-26 06:10 1.0M
20260426T00Z_MSC_CAPS_WindU_IsbL-0750_RLatLon0.03_PT017H.grib2 2026-04-26 06:10 1.0M
20260426T00Z_MSC_CAPS_WindU_IsbL-0800_RLatLon0.03_PT017H.grib2 2026-04-26 06:10 1.4M
20260426T00Z_MSC_CAPS_WindU_IsbL-0850_RLatLon0.03_PT017H.grib2 2026-04-26 06:10 1.5M
20260426T00Z_MSC_CAPS_WindU_IsbL-0875_RLatLon0.03_PT017H.grib2 2026-04-26 06:10 1.2M
20260426T00Z_MSC_CAPS_WindU_IsbL-0900_RLatLon0.03_PT017H.grib2 2026-04-26 06:10 1.6M
20260426T00Z_MSC_CAPS_WindU_IsbL-0925_RLatLon0.03_PT017H.grib2 2026-04-26 06:10 1.6M
20260426T00Z_MSC_CAPS_WindU_IsbL-0950_RLatLon0.03_PT017H.grib2 2026-04-26 06:10 1.7M
20260426T00Z_MSC_CAPS_WindU_IsbL-0970_RLatLon0.03_PT017H.grib2 2026-04-26 06:10 1.7M
20260426T00Z_MSC_CAPS_WindU_IsbL-0985_RLatLon0.03_PT017H.grib2 2026-04-26 06:10 1.8M
20260426T00Z_MSC_CAPS_WindU_IsbL-1000_RLatLon0.03_PT017H.grib2 2026-04-26 06:10 1.8M
20260426T00Z_MSC_CAPS_WindU_IsbL-1015_RLatLon0.03_PT017H.grib2 2026-04-26 06:10 1.8M
20260426T00Z_MSC_CAPS_WindV_AGL-10m_RLatLon0.03_PT017H.grib2 2026-04-26 06:10 1.9M
20260426T00Z_MSC_CAPS_WindV_AGL-120m_RLatLon0.03_PT017H.grib2 2026-04-26 06:10 914K
20260426T00Z_MSC_CAPS_WindV_AGL-40m_RLatLon0.03_PT017H.grib2 2026-04-26 06:10 1.2M
20260426T00Z_MSC_CAPS_WindV_AGL-80m_RLatLon0.03_PT017H.grib2 2026-04-26 06:10 919K
20260426T00Z_MSC_CAPS_WindV_IsbL-0050_RLatLon0.03_PT017H.grib2 2026-04-26 06:10 940K
20260426T00Z_MSC_CAPS_WindV_IsbL-0100_RLatLon0.03_PT017H.grib2 2026-04-26 06:10 783K
20260426T00Z_MSC_CAPS_WindV_IsbL-0150_RLatLon0.03_PT017H.grib2 2026-04-26 06:10 908K
20260426T00Z_MSC_CAPS_WindV_IsbL-0175_RLatLon0.03_PT017H.grib2 2026-04-26 06:10 718K
20260426T00Z_MSC_CAPS_WindV_IsbL-0200_RLatLon0.03_PT017H.grib2 2026-04-26 06:10 862K
20260426T00Z_MSC_CAPS_WindV_IsbL-0225_RLatLon0.03_PT017H.grib2 2026-04-26 06:10 878K
20260426T00Z_MSC_CAPS_WindV_IsbL-0250_RLatLon0.03_PT017H.grib2 2026-04-26 06:10 690K
20260426T00Z_MSC_CAPS_WindV_IsbL-0275_RLatLon0.03_PT017H.grib2 2026-04-26 06:10 700K
20260426T00Z_MSC_CAPS_WindV_IsbL-0300_RLatLon0.03_PT017H.grib2 2026-04-26 06:10 709K
20260426T00Z_MSC_CAPS_WindV_IsbL-0350_RLatLon0.03_PT017H.grib2 2026-04-26 06:10 934K
20260426T00Z_MSC_CAPS_WindV_IsbL-0400_RLatLon0.03_PT017H.grib2 2026-04-26 06:10 942K
20260426T00Z_MSC_CAPS_WindV_IsbL-0450_RLatLon0.03_PT017H.grib2 2026-04-26 06:10 959K
20260426T00Z_MSC_CAPS_WindV_IsbL-0500_RLatLon0.03_PT017H.grib2 2026-04-26 06:10 865K
20260426T00Z_MSC_CAPS_WindV_IsbL-0550_RLatLon0.03_PT017H.grib2 2026-04-26 06:10 901K
20260426T00Z_MSC_CAPS_WindV_IsbL-0600_RLatLon0.03_PT017H.grib2 2026-04-26 06:10 927K
20260426T00Z_MSC_CAPS_WindV_IsbL-0650_RLatLon0.03_PT017H.grib2 2026-04-26 06:10 1.2M
20260426T00Z_MSC_CAPS_WindV_IsbL-0700_RLatLon0.03_PT017H.grib2 2026-04-26 06:10 1.3M
20260426T00Z_MSC_CAPS_WindV_IsbL-0750_RLatLon0.03_PT017H.grib2 2026-04-26 06:10 1.0M
20260426T00Z_MSC_CAPS_WindV_IsbL-0800_RLatLon0.03_PT017H.grib2 2026-04-26 06:10 1.1M
20260426T00Z_MSC_CAPS_WindV_IsbL-0850_RLatLon0.03_PT017H.grib2 2026-04-26 06:10 1.2M
20260426T00Z_MSC_CAPS_WindV_IsbL-0875_RLatLon0.03_PT017H.grib2 2026-04-26 06:10 1.3M
20260426T00Z_MSC_CAPS_WindV_IsbL-0900_RLatLon0.03_PT017H.grib2 2026-04-26 06:10 1.3M
20260426T00Z_MSC_CAPS_WindV_IsbL-0925_RLatLon0.03_PT017H.grib2 2026-04-26 06:10 1.4M
20260426T00Z_MSC_CAPS_WindV_IsbL-0950_RLatLon0.03_PT017H.grib2 2026-04-26 06:10 1.4M
20260426T00Z_MSC_CAPS_WindV_IsbL-0970_RLatLon0.03_PT017H.grib2 2026-04-26 06:10 1.4M
20260426T00Z_MSC_CAPS_WindV_IsbL-0985_RLatLon0.03_PT017H.grib2 2026-04-26 06:10 1.4M
20260426T00Z_MSC_CAPS_WindV_IsbL-1000_RLatLon0.03_PT017H.grib2 2026-04-26 06:10 1.8M
20260426T00Z_MSC_CAPS_WindV_IsbL-1015_RLatLon0.03_PT017H.grib2 2026-04-26 06:10 1.9M